Location: Brunembert
(50.7122°N, 1.8935°E)
Time: 19:22:26
(UTC+00:00)

ISS - Visible Passes

Search period start: 19 September 2021 00:00
Search period end: 29 September 2021 00:00
Orbit: 419 x 423 km, 51.6° (Epoch: 19 September)

Date Brightness Start Highest point End Pass type
(mag) Time Alt. Az. Time Alt. Az. Time Alt. Az.
19 Sep -3.7 19:41:00 10° WSW 19:44:20 58° SSE 19:44:44 52° ESE visible
20 Sep -3.3 18:54:17 10° SW 18:57:30 43° SSE 18:59:51 16° E visible
20 Sep -2.1 20:30:52 10° W 20:32:51 32° W 20:32:51 32° W visible
21 Sep -3.9 19:43:58 10° WSW 19:47:21 89° N 19:47:52 61° ENE visible
22 Sep -3.8 18:57:05 10° WSW 19:00:27 77° SSE 19:02:48 18° ENE visible
22 Sep -1.8 20:33:59 10° W 20:35:48 29° WNW 20:35:48 29° WNW visible
23 Sep -3.8 19:47:03 10° W 19:50:26 74° N 19:50:41 68° NE visible
24 Sep -3.7 19:00:07 10° W 19:03:30 78° N 19:05:32 22° ENE visible
24 Sep -1.4 20:37:03 10° WNW 20:38:31 24° WNW 20:38:31 24° WNW visible
25 Sep -3.7 18:13:11 10° WSW 18:16:34 87° N 18:19:58 10° ENE visible
25 Sep -3.7 19:50:08 10° W 19:53:21 76° NW 19:53:21 76° NW visible
26 Sep -3.7 19:03:11 10° W 19:06:35 74° N 19:08:11 29° E visible
26 Sep -1.1 20:40:06 10° WNW 20:41:10 19° W 20:41:10 19° W visible
27 Sep -3.6 18:16:15 10° W 18:19:38 73° N 18:23:00 10° E visible
27 Sep -3.2 19:53:09 10° WNW 19:55:59 57° W 19:55:59 57° W visible
28 Sep -3.8 19:06:14 10° WNW 19:09:37 88° S 19:10:49 37° ESE visible
28 Sep -0.7 20:43:16 10° W 20:43:49 13° W 20:43:49 13° W visible
